Date,TemperatureHighF,TemperatureAvgF,TemperatureLowF,DewpointHighF,DewpointAvgF,DewpointLowF,HumidityHigh,HumidityAvg,HumidityLow,PressureMaxIn,PressureMinIn,WindSpeedMaxMPH,WindSpeedAvgMPH,GustSpeedMaxMPH,PrecipitationSumIn
2013-1-1,34,15,-30,19,8,-30,100,75,50,30.39,30.27,10,3,24,0.00
2013-1-2,17,-7,-50,12,-11,-50,100,85,73,30.35,30.24,7,1,10,0.00
2013-1-3,32,7,-43,15,-2,-48,100,69,47,30.26,30.12,18,5,24,0.00
2013-1-4,43,30,22,26,19,14,74,63,49,30.26,30.15,26,7,29,0.01
2013-1-5,30,26,21,24,18,13,82,71,62,30.17,30.08,13,3,20,0.00
2013-1-6,42,32,25,28,23,18,78,70,54,30.12,30.03,23,8,29,0.01
2013-1-7,46,39,32,35,30,24,85,71,58,30.11,29.97,34,16,41,0.00
2013-1-8,46,41,37,37,33,28,85,74,64,30.14,30.03,28,13,39,0.00
2013-1-9,44,35,25,32,25,18,80,67,53,29.88,29.75,25,8,39,0.02
2013-1-10,33,25,21,24,16,11,100,70,45,29.93,29.83,23,4,28,0.02
2013-1-11,26,13,-41,18,4,-41,100,69,46,30.13,29.92,16,3,19,0.00
2013-1-12,26,13,-5,10,3,-13,100,64,40,30.19,30.08,17,5,23,0.00
2013-1-13,27,13,-5,15,3,-5,100,69,33,30.26,30.16,13,1,16,0.00
2013-1-14,40,23,11,20,9,0,67,54,35,30.33,30.22,27,9,31,0.00
2013-1-15,51,33,22,23,17,11,69,53,31,30.49,30.32,25,12,32,0.00
2013-1-16,54,36,23,19,17,13,67,48,24,30.49,30.39,25,13,34,0.00
2013-1-17,54,37,26,22,18,14,64,47,25,30.41,30.28,26,9,31,0.00
2013-1-18,55,37,26,23,17,14,62,46,23,30.30,30.23,29,12,34,0.00
2013-1-19,58,37,26,23,16,14,61,44,18,30.32,30.25,25,11,31,0.00
2013-1-20,50,34,23,18,14,11,63,46,27,30.34,30.23,21,7,28,0.00
2013-1-21,54,34,13,19,13,10,100,43,17,30.25,30.12,27,6,27,0.00
2013-1-22,50,35,26,21,15,11,60,44,23,30.15,30.00,16,5,20,0.00
2013-1-23,48,43,36,33,26,15,81,54,30,30.08,29.81,24,9,35,0.03
2013-1-24,50,41,33,36,33,30,88,74,53,30.12,30.05,19,7,25,0.04
2013-1-25,43,41,37,38,36,33,88,82,74,30.11,29.89,22,9,28,0.03
2013-1-26,39,34,28,33,22,18,87,62,43,29.96,29.86,18,7,24,0.00
2013-1-27,35,30,25,24,20,15,81,69,45,30.02,29.93,13,6,19,0.00
2013-1-28,37,33,-1,31,24,-1,100,71,56,30.04,29.93,24,7,34,0.00
2013-1-29,47,38,35,32,27,24,73,64,54,30.31,30.02,24,10,29,0.00
2013-1-30,46,39,35,33,30,24,79,69,59,30.35,30.29,26,10,27,0.00
2013-1-31,47,36,29,32,28,24,85,72,53,30.31,30.22,18,6,21,0.00
2013-2-1,49,36,26,33,26,21,84,67,40,30.32,30.21,15,6,19,0.00
2013-2-2,49,36,25,32,26,20,80,68,46,30.33,30.20,10,4,59,0.00
2013-2-3,56,42,30,28,24,18,77,51,25,30.22,30.10,20,9,26,0.00
2013-2-4,54,44,38,25,21,14,54,40,22,30.12,29.91,17,7,23,0.00
2013-2-5,43,39,34,29,21,14,74,50,33,30.00,29.87,23,9,33,0.00
2013-2-6,46,38,32,25,22,18,72,54,33,30.05,29.85,23,8,28,0.00
2013-2-7,39,33,28,27,21,12,78,62,35,29.99,29.84,18,6,25,0.00
2013-2-8,36,30,24,22,18,11,78,62,34,30.08,29.99,17,6,27,0.00
2013-2-9,41,29,0,27,19,0,100,67,54,30.14,30.04,16,5,20,0.00
2013-2-10,42,33,25,25,20,17,82,62,38,30.20,30.13,14,4,18,0.00
2013-2-11,48,35,24,30,22,18,78,62,38,30.24,30.11,23,10,62,0.00
2013-2-12,47,37,31,30,26,23,81,66,40,30.34,30.24,15,7,23,0.00
2013-2-13,45,38,31,32,28,26,81,69,55,30.41,30.27,13,6,25,0.00
2013-2-14,51,38,30,33,30,26,84,72,50,30.42,30.34,16,7,21,0.00
2013-2-15,56,41,30,36,30,25,84,69,43,30.41,30.20,14,5,15,0.00
2013-2-16,52,38,27,30,24,16,79,57,31,30.21,30.08,22,8,25,0.00
2013-2-17,44,31,24,22,17,7,78,59,23,30.13,29.98,11,4,16,0.00
2013-2-18,28,27,26,20,19,18,74,72,68,29.98,29.89,7,2,13,1.28
2013-2-19,37,31,24,26,19,17,74,62,44,29.87,29.63,12,5,18,0.00
2013-2-20,39,30,20,22,18,12,76,60,41,29.97,29.87,14,5,72,0.20
2013-2-21,37,31,24,24,21,17,80,67,45,30.08,29.95,21,8,26,1.28
2013-2-22,43,34,27,32,26,20,86,72,55,30.07,29.82,28,12,41,0.07
2013-2-23,36,29,24,23,18,12,77,62,37,30.25,29.94,18,6,26,0.00
2013-2-24,44,32,21,29,20,15,76,64,44,30.27,30.02,22,9,24,0.00
2013-2-25,37,33,25,30,20,11,84,60,40,30.22,29.95,26,9,34,0.01
2013-2-26,45,34,22,19,15,10,74,50,27,30.24,30.13,20,8,25,0.00
2013-2-27,45,38,31,31,21,14,66,52,41,30.24,30.16,22,9,26,0.00
2013-2-28,50,43,37,39,35,29,82,74,60,30.39,30.17,21,10,29,0.00
2013-3-1,59,47,39,35,33,29,79,60,34,30.42,30.26,19,8,25,0.00
2013-3-2,54,44,37,33,30,25,73,60,33,30.27,30.05,20,9,23,0.00
2013-3-3,40,34,26,30,17,3,79,52,21,30.15,30.05,18,5,21,0.00
2013-3-4,50,33,20,20,16,12,100,52,27,30.14,29.91,11,3,19,0.00
2013-3-5,42,33,28,31,23,16,87,68,52,29.92,29.65,9,3,14,0.02
2013-3-6,39,33,30,32,26,21,89,76,56,29.91,29.51,19,7,28,0.07
2013-3-7,42,33,25,26,22,18,80,64,40,29.98,29.89,16,5,17,0.01
2013-3-8,42,33,27,29,24,19,83,70,50,30.12,29.92,20,5,21,0.01
2013-3-9,42,30,24,24,19,16,74,64,43,30.38,30.11,14,7,20,0.00
2013-3-10,57,41,28,35,24,13,72,53,20,30.38,30.26,22,9,27,0.00
2013-3-11,53,45,38,38,35,31,82,70,52,30.31,30.19,14,6,21,0.00
2013-3-12,61,48,36,37,28,18,85,54,21,30.21,30.09,20,8,32,0.00
2013-3-13,64,51,42,35,29,21,63,43,30,30.19,30.11,18,6,21,0.00
2013-3-14,63,49,39,33,27,18,66,45,19,30.16,30.06,23,9,25,0.00
2013-3-15,55,47,39,36,32,29,76,57,40,30.28,30.09,16,5,23,0.00
2013-3-16,48,41,33,31,28,21,80,60,39,30.13,29.91,19,4,25,0.00
2013-3-17,40,32,26,24,18,13,77,57,40,30.12,29.95,17,5,35,0.00
2013-3-18,48,36,26,24,16,-7,75,50,10,30.14,30.05,15,5,19,0.00
2013-3-19,51,31,-7,44,19,-7,100,65,33,30.10,29.74,10,2,227,0.02
2013-3-20,45,40,30,38,30,16,83,70,47,30.02,29.63,25,6,41,1.41
2013-3-21,38,31,26,27,18,12,100,58,40,30.13,30.01,17,4,29,0.00
2013-3-22,34,30,27,28,19,7,100,71,33,30.21,30.09,227,6,227,0.55
2013-3-23,40,32,26,27,20,11,100,66,32,30.21,30.11,11,3,227,0.55
2013-3-24,43,34,25,23,20,15,71,55,42,30.16,30.04,11,3,16,0.00
2013-3-25,48,39,29,28,25,21,73,57,44,30.06,29.89,14,4,16,0.00
2013-3-26,46,40,34,36,33,28,87,77,65,29.96,29.90,14,3,16,0.02
2013-3-27,54,42,31,40,35,28,89,78,49,29.99,29.88,16,4,25,0.07
2013-3-28,55,45,39,41,38,36,90,79,49,30.11,29.97,12,3,36,0.12
2013-3-29,58,48,37,43,38,34,91,73,46,30.19,30.10,14,4,19,0.01
2013-3-30,66,51,35,43,38,31,85,63,34,30.20,30.06,15,6,64,0.00
2013-3-31,62,51,35,43,37,30,82,61,38,30.07,29.93,16,6,21,0.00
2013-4-1,59,50,41,59,39,36,100,66,48,30.11,29.95,17,6,21,0.00
2013-4-2,62,47,36,40,36,32,85,67,41,30.15,30.07,16,6,23,0.00
2013-4-3,64,50,34,38,32,23,88,55,21,30.14,29.97,20,7,24,0.00
2013-4-4,59,50,43,41,36,33,73,60,44,29.98,29.77,29,6,38,0.00
2013-4-5,53,44,40,39,35,32,82,71,46,29.98,29.89,21,7,27,0.08
2013-4-6,48,39,-42,38,30,-42,100,72,18,29.98,29.78,25,4,227,0.06
2013-4-7,44,39,32,36,29,21,84,68,46,29.83,29.63,31,7,39,0.06
2013-4-8,43,35,26,25,22,19,79,60,46,30.16,29.83,27,7,32,0.00
2013-4-9,54,39,-26,35,24,-26,100,59,24,30.26,30.16,17,4,19,0.00
2013-4-10,54,47,35,44,35,27,76,63,40,30.22,30.08,27,10,40,0.01
2013-4-11,51,40,29,28,24,19,80,56,28,30.19,30.07,20,5,24,0.00
2013-4-12,60,42,27,34,25,10,76,55,15,30.09,29.75,27,10,34,1.00
2013-4-13,45,39,28,33,18,10,67,45,27,29.99,29.75,32,10,44,0.00
2013-4-14,38,32,26,27,21,16,100,66,42,30.01,29.82,14,3,18,0.00
2013-4-15,36,29,4,30,25,4,100,84,64,30.04,29.81,144,4,227,0.09
2013-4-16,39,32,28,30,27,21,100,83,50,30.27,30.03,227,5,228,2.34
2013-4-17,46,32,10,24,17,3,100,59,27,30.35,30.26,16,5,25,0.00
2013-4-18,56,44,31,37,31,22,75,61,46,30.34,30.24,24,7,28,2.66
2013-4-19,53,46,37,38,35,29,79,64,45,30.26,30.10,30,10,41,0.00
2013-4-20,55,44,34,33,30,25,83,60,34,30.22,30.14,18,6,228,0.00
2013-4-21,56,46,35,37,33,28,78,62,42,30.18,30.11,19,6,24,0.00
2013-4-22,49,41,34,48,24,14,100,54,27,30.34,30.18,16,5,23,2.56
2013-4-23,58,34,-10,58,19,-10,100,67,10,30.33,30.07,9,1,227,1.28
2013-4-24,64,48,30,20,16,12,54,30,13,30.25,30.04,18,5,21,0.00
2013-4-25,67,53,35,34,26,17,56,37,24,30.17,30.01,23,10,30,0.00
2013-4-26,72,57,40,36,30,22,71,42,17,30.24,30.15,20,8,24,1.28
2013-4-28,50,50,48,33,31,28,56,50,42,30.10,30.07,23,16,34,0.00
2013-4-29,52,46,34,39,31,21,79,56,32,30.08,29.98,27,10,33,0.00
2013-4-30,46,27,-43,23,10,-43,100,55,27,30.31,30.03,25,6,30,1.28
2013-5-1,58,40,-25,30,15,-25,100,44,16,30.46,30.31,14,5,37,2.56
2013-5-2,71,54,32,23,16,6,61,27,9,30.46,30.23,18,6,23,2.56
2013-5-3,65,55,40,32,26,22,52,34,20,30.30,30.16,21,8,55,1.28
2013-5-4,63,55,47,33,28,25,45,36,27,30.19,29.96,30,8,46,6.40
2013-5-5,67,57,46,47,30,28,100,38,27,29.98,29.82,28,10,39,3.84
2013-5-6,73,62,47,44,33,29,62,36,23,29.93,29.82,36,6,37,0.00
2013-5-7,72,61,48,60,42,32,100,53,24,30.01,29.88,24,8,33,1.28
2013-5-8,74,60,46,47,42,30,85,57,20,30.13,30.00,21,6,37,2.68
2013-5-9,77,61,48,48,44,39,83,57,26,30.20,30.09,20,7,37,3.84
2013-5-10,80,64,48,50,44,39,81,52,23,30.24,30.15,18,8,62,3.84
2013-5-11,83,68,54,69,47,37,100,51,21,30.25,30.09,16,6,23,0.02
2013-5-12,79,66,57,76,48,41,100,56,28,30.15,30.03,19,8,32,2.56
2013-5-13,66,56,44,47,41,33,76,56,39,30.16,30.04,33,8,73,5.12
2013-5-14,64,50,34,53,36,30,100,62,34,30.15,30.03,18,5,227,0.10
2013-5-15,59,41,-8,53,31,-11,100,71,43,30.09,29.98,227,5,227,0.05
2013-5-16,54,47,39,46,40,34,100,78,56,30.03,29.90,16,3,22,0.11
2013-5-17,54,46,40,40,36,32,88,69,47,30.06,29.93,17,3,23,0.01
2013-5-18,54,45,36,41,35,30,81,69,53,30.22,30.05,18,6,21,0.10
2013-5-19,58,48,36,38,34,31,81,61,37,30.30,30.21,18,7,227,0.37
2013-5-20,74,54,36,43,34,27,81,52,19,30.27,29.91,12,4,19,0.00
2013-5-21,53,46,32,41,31,21,81,57,34,29.92,29.76,25,9,38,0.02
2013-5-22,43,36,30,30,26,19,78,65,54,29.94,29.87,20,6,27,1.28
2013-5-23,53,42,32,32,27,19,77,56,28,29.99,29.90,17,6,21,0.00
2013-5-24,54,45,38,33,30,26,76,58,38,30.03,29.94,19,7,24,0.00
2013-5-25,60,47,32,43,33,26,86,62,34,30.03,29.93,13,5,18,0.02
2013-5-26,57,46,-40,51,36,-51,100,71,41,30.04,29.94,20,3,23,0.12
2013-5-27,55,48,42,46,40,34,85,75,67,30.00,29.81,20,7,33,0.04
2013-5-28,60,51,43,41,36,31,80,57,34,29.92,29.78,20,8,25,0.03
2013-5-29,54,48,42,43,38,33,89,68,49,30.00,29.72,23,9,30,0.09
2013-5-30,56,46,34,35,32,29,82,60,40,30.19,29.99,18,5,27,0.00
2013-5-31,66,51,32,66,32,26,100,53,23,30.25,30.17,13,5,20,0.69
2013-6-1,71,58,40,45,37,30,76,50,27,30.23,30.03,20,6,73,0.55
2013-6-2,67,55,42,45,38,26,85,57,22,30.07,29.97,24,7,227,0.00
2013-6-3,72,57,37,41,33,26,81,47,22,30.09,30.00,16,5,227,0.69
2013-6-4,74,61,43,38,33,27,61,37,22,30.23,30.05,18,6,19,0.58
2013-6-5,81,66,50,48,40,36,62,42,22,30.13,30.01,19,7,25,0.00
2013-6-6,83,68,53,53,47,43,74,51,25,30.08,29.99,18,6,34,0.00
2013-6-7,78,66,54,51,47,41,82,54,27,30.13,30.05,21,6,73,0.00
2013-6-8,82,67,50,50,41,26,81,45,15,30.14,30.05,21,7,31,0.00
2013-6-9,63,58,52,44,40,33,65,52,33,30.08,29.96,17,5,17,0.00
2013-6-10,73,58,41,38,34,26,73,44,21,29.98,29.82,17,6,26,0.00
2013-6-11,59,50,40,37,34,30,76,54,33,30.09,29.91,20,6,29,0.00
2013-6-12,58,47,33,36,32,27,80,58,38,30.11,30.05,20,6,29,0.00
2013-6-13,55,45,36,38,34,29,79,64,43,30.23,30.10,17,4,22,0.00
2013-6-14,68,53,34,38,32,28,84,50,24,30.23,30.02,12,5,16,0.00
2013-6-15,78,61,41,47,37,29,69,44,19,30.04,29.91,20,5,31,0.00
2013-6-16,76,62,50,52,44,37,76,55,26,30.12,30.00,25,6,28,0.03
2013-6-17,73,60,44,47,43,39,84,56,30,30.12,29.93,21,6,22,0.00
2013-6-18,56,51,46,45,41,36,85,70,46,29.99,29.88,23,5,28,0.04
2013-6-19,56,48,40,40,36,33,83,64,44,30.07,29.90,22,6,24,0.01
2013-6-20,58,48,38,38,34,32,80,61,39,30.11,30.01,25,6,26,0.00
2013-6-21,56,49,40,40,38,33,81,66,50,30.15,30.09,19,6,25,0.00
2013-6-22,73,58,38,44,40,34,84,56,30,30.14,29.94,12,6,18,0.00
2013-6-23,60,56,52,53,49,42,91,77,54,29.95,29.74,12,4,14,0.63
2013-6-24,58,52,48,50,46,43,90,79,64,29.81,29.71,11,5,18,0.08
2013-6-25,61,55,50,50,46,44,87,72,59,29.94,29.77,24,6,27,0.10
2013-6-26,63,57,50,56,50,45,85,79,71,30.13,29.93,11,4,21,0.08
2013-6-27,80,65,48,55,51,45,89,64,37,30.23,30.10,16,6,23,0.00
2013-6-28,86,72,54,60,55,49,85,59,33,30.26,30.10,16,5,28,0.00
2013-6-29,82,73,61,59,56,53,79,57,40,30.16,30.07,20,7,28,0.00
2013-6-30,90,75,57,58,54,50,78,51,29,30.13,29.98,23,7,25,0.00
2013-7-1,92,80,70,58,56,53,61,44,27,30.14,30.02,17,6,27,0.00
2013-7-2,95,79,65,62,57,46,82,50,19,30.16,30.06,14,5,36,0.32
2013-7-3,86,75,63,60,53,41,79,49,28,30.16,30.05,21,6,29,0.00
2013-7-4,77,61,28,69,38,14,100,51,20,30.10,29.98,227,6,227,0.00
2013-7-5,74,62,49,45,37,27,81,44,22,30.02,29.92,19,6,24,0.00
2013-7-6,78,61,42,45,36,30,69,43,19,29.98,29.88,18,6,25,0.00
2013-7-7,82,67,50,50,43,38,70,45,24,29.99,29.88,17,5,24,0.00
2013-7-8,81,64,51,48,42,34,76,50,20,30.12,29.98,14,5,20,0.00
2013-7-9,90,61,38,90,43,36,100,59,16,30.16,30.03,21,3,227,0.32
2013-7-10,78,64,59,53,50,48,69,61,36,30.12,30.06,16,6,18,0.00
2013-7-12,74,65,51,43,36,28,72,37,19,30.08,29.95,19,6,25,0.00
2013-7-13,74,60,42,39,33,26,74,41,19,30.16,30.06,19,6,22,0.00
2013-7-14,84,68,49,44,34,23,41,29,19,30.16,30.00,21,6,27,0.00
2013-7-15,82,68,54,46,40,34,63,38,20,30.06,29.91,22,7,26,0.00
2013-7-16,79,69,62,46,37,30,42,31,25,30.04,29.92,22,8,27,0.00
2013-7-17,83,70,57,46,40,34,65,36,17,30.19,30.03,23,9,30,0.00
2013-7-18,88,71,53,50,41,34,61,37,16,30.21,30.07,26,6,29,0.00
2013-7-19,88,74,55,49,36,28,50,28,13,30.16,30.03,19,6,28,0.00
2013-7-20,88,72,56,48,41,27,63,36,11,30.09,29.97,23,6,25,0.32
2013-7-21,90,72,54,83,39,23,100,38,9,30.02,29.93,22,8,227,1.20
2013-7-22,89,77,53,44,36,28,61,26,12,30.08,30.00,18,5,24,0.00
2013-7-23,91,73,-11,53,41,-11,100,36,15,30.10,30.00,16,3,227,0.32
2013-7-24,88,74,59,48,40,30,55,32,15,30.20,30.05,13,3,16,0.32
2013-7-25,90,76,59,48,40,29,57,30,12,30.16,30.07,19,6,25,0.00
2013-7-26,90,76,62,44,36,27,40,25,15,30.19,30.08,22,6,35,0.00
2013-7-27,80,68,54,42,36,27,55,32,15,30.17,30.00,22,6,28,0.00
2013-7-28,59,58,58,38,38,37,46,46,45,30.03,30.02,2,0,7,0.00
2013-7-30,81,40,-33,45,17,-33,100,53,15,30.15,30.07,18,2,21,0.16
2013-7-31,75,2,-33,44,-8,-33,100,79,28,30.15,30.09,11,1,12,0.16
2013-8-1,62,56,53,50,45,43,69,67,65,30.08,30.06,10,1,14,1.52
2013-8-2,68,58,44,43,41,38,83,55,35,30.12,30.07,17,6,227,1.07
2013-8-3,79,66,3,48,37,3,100,40,21,30.14,30.03,16,2,16,0.00
2013-8-4,83,75,21,49,44,21,100,35,23,30.11,29.98,18,4,28,0.00
2013-8-5,83,75,56,50,45,37,67,37,20,30.21,29.99,16,5,36,0.00
2013-8-6,86,77,54,52,43,38,70,34,19,30.09,29.98,19,6,55,0.00
2013-8-7,70,69,67,43,40,39,42,36,34,30.08,30.04,11,6,16,0.00
2013-8-8,78,60,-39,67,39,-49,100,51,24,30.06,29.97,12,3,21,0.00
2013-8-9,78,62,-46,60,44,-57,100,55,29,30.11,29.93,18,3,28,0.02
2013-8-10,70,59,49,57,48,44,83,68,47,30.11,30.00,22,5,27,0.14
2013-8-11,77,62,50,50,46,40,81,59,28,30.23,30.01,17,3,23,0.00
2013-8-12,80,58,-32,73,42,-32,100,61,27,30.09,30.00,16,3,21,0.00
2013-8-13,83,72,52,81,50,36,100,52,24,30.14,30.01,24,3,228,0.00
2013-8-14,86,42,16,83,31,-15,100,78,23,30.06,29.96,15,1,227,0.00
2013-8-15,16,-80,-100,16,-80,-100,100,100,100,30.05,29.96,0,0,227,0.00
2013-8-16,81,47,-100,81,36,-100,100,75,33,30.11,30.03,0,0,2,0.00
2013-8-17,81,81,81,81,76,50,100,90,35,30.14,30.03,0,0,0,0.00
2013-8-18,81,-2,-41,51,-11,-41,100,79,34,30.16,30.07,0,0,0,0.00
2013-8-19,84,-6,-41,84,-11,-41,100,91,27,30.15,30.03,0,0,0,0.00
2013-8-20,80,20,-22,80,5,-22,100,71,18,30.18,30.08,0,0,3,0.00
2013-8-21,74,70,64,37,36,35,35,29,25,29.84,29.79,11,4,13,0.03
2013-8-22,79,66,58,54,43,36,77,45,34,29.87,29.81,29,7,38,0.01
2013-8-23,79,68,53,51,49,44,80,52,30,29.85,29.73,21,8,24,0.00
2013-8-24,76,62,51,52,49,45,88,64,34,29.82,29.68,18,5,22,0.00
2013-8-25,70,58,51,59,50,48,93,76,48,29.89,29.72,31,5,40,0.17
2013-8-26,74,60,50,53,47,43,91,66,35,29.91,29.86,19,7,22,0.00
2013-8-27,83,62,48,53,46,34,86,61,18,29.90,29.69,18,6,25,0.00
2013-8-28,82,67,53,54,47,38,86,54,22,29.81,29.73,22,8,29,0.00
2013-8-29,79,67,57,53,49,43,78,56,30,29.97,29.78,26,7,27,0.00
2013-8-30,81,66,53,55,50,41,89,61,24,30.04,29.91,19,6,24,0.00
2013-8-31,86,67,51,53,50,46,88,58,25,29.97,29.75,19,6,21,0.00
2013-9-1,68,59,54,50,47,46,79,66,51,29.79,29.76,13,5,16,0.00
2013-9-4,83,70,58,50,44,30,71,43,15,30.14,30.04,26,8,27,0.00
2013-9-5,70,58,52,52,47,41,85,68,42,30.21,30.00,34,7,45,0.00
2013-9-6,69,57,49,49,46,44,89,69,45,30.30,30.20,24,8,25,0.01
2013-9-7,76,60,43,49,46,42,96,65,33,30.29,30.12,18,6,19,0.00
2013-9-8,73,61,50,52,47,43,85,63,35,30.21,30.17,19,6,23,0.00
2013-9-9,80,65,48,48,42,31,78,49,18,30.21,30.07,20,8,23,0.00
2013-9-10,83,68,52,49,44,40,68,44,23,30.11,30.01,16,6,19,0.00
2013-9-11,85,71,54,51,45,39,66,42,20,30.14,30.05,17,6,23,0.00
2013-9-12,87,74,58,50,44,39,56,37,19,30.11,29.97,16,6,18,0.00
2013-9-13,80,70,58,48,44,38,63,41,24,30.02,29.80,17,6,18,0.00
2013-9-14,86,70,55,51,47,43,70,48,23,29.83,25.95,17,7,19,0.00
2013-9-15,86,69,57,51,43,25,69,44,11,29.72,26.01,27,8,28,0.00
2013-9-16,68,58,48,47,45,41,84,63,45,29.83,29.71,18,7,22,0.00
2013-9-17,55,49,43,49,43,40,91,80,65,29.97,29.74,16,4,21,0.37
2013-9-18,64,50,38,42,37,33,94,66,33,30.09,29.97,13,4,14,0.00
2013-9-19,78,57,38,40,34,28,83,49,16,30.05,29.79,20,5,22,0.00
2013-9-20,75,56,41,46,37,29,84,53,19,29.80,29.51,22,8,28,0.02
2013-9-21,60,51,45,45,41,39,83,68,46,29.75,29.60,20,7,24,0.00
2013-9-22,58,49,44,47,41,38,84,75,56,29.84,29.72,26,11,34,0.00
2013-9-23,62,54,50,45,41,37,72,63,45,29.95,29.84,29,9,31,0.00
2013-9-24,53,48,42,42,39,34,85,72,54,29.91,29.79,23,7,28,0.00
2013-9-25,50,42,35,37,34,30,90,73,51,30.00,29.78,24,6,26,0.00
2013-9-26,52,42,32,38,33,29,90,73,49,30.18,30.00,17,6,21,0.00
2013-9-27,59,45,33,44,36,24,90,72,26,30.18,30.01,26,11,30,0.00
2013-9-28,62,53,46,48,45,41,93,75,50,30.01,29.55,45,13,47,0.54
2013-9-29,50,45,41,48,42,38,94,88,75,29.71,29.52,29,10,35,1.28
2013-9-30,51,44,38,48,36,32,93,73,57,30.01,29.57,36,10,37,0.08
2013-10-1,50,42,33,39,32,25,86,70,43,30.19,29.99,25,8,28,0.00
2013-10-2,48,38,28,35,30,26,93,77,46,30.20,30.06,17,5,18,0.00
2013-10-3,49,39,30,34,31,28,95,75,51,30.46,30.16,19,5,19,0.00
2013-10-4,57,43,30,34,29,25,90,62,30,30.54,30.42,17,5,18,0.00
2013-10-5,73,57,34,34,28,20,74,38,14,30.40,30.22,18,6,21,0.00
2013-10-6,74,55,40,36,30,24,64,43,19,30.22,29.94,25,9,28,0.00
2013-10-7,53,47,35,39,31,25,85,56,44,30.07,29.90,30,8,30,0.00
2013-10-8,48,40,33,39,34,29,94,79,57,30.09,29.94,17,6,20,0.00
2013-10-9,42,38,34,36,34,31,95,86,74,30.07,29.98,20,7,23,0.02
2013-10-10,54,42,33,35,33,30,91,72,46,30.07,29.95,23,7,27,0.00
2013-10-11,51,41,32,37,33,29,91,76,53,30.14,30.06,17,7,20,0.00
2013-10-12,46,39,33,37,34,30,92,81,64,30.17,30.03,13,5,15,0.00
2013-10-13,48,42,36,38,36,32,94,80,57,30.32,30.16,14,5,15,0.00
2013-10-14,52,41,30,36,31,27,91,71,45,30.42,30.32,17,6,19,0.00
2013-10-15,60,44,28,32,28,23,85,57,30,30.41,30.19,14,4,16,0.00
2013-10-16,62,45,34,31,28,23,74,53,25,30.20,30.10,23,8,25,0.00
2013-10-17,59,45,32,37,31,28,86,62,34,30.27,30.19,13,5,15,0.00
2013-10-18,62,46,32,38,33,28,85,64,36,30.28,30.17,13,5,15,0.00
2013-10-19,73,52,37,35,31,24,81,52,17,30.19,30.08,27,8,28,0.00
2013-10-20,68,50,34,36,31,27,77,51,25,30.16,30.08,17,6,18,0.00
2013-10-21,68,51,36,38,34,30,78,54,29,30.17,30.09,14,6,16,0.00
2013-10-22,70,50,35,40,35,30,83,60,30,30.16,30.04,16,6,18,0.00
2013-10-23,66,50,36,41,36,31,85,62,35,30.09,30.01,19,6,19,0.00
2013-10-24,68,50,35,42,37,32,88,66,32,30.12,30.01,18,6,21,0.00
2013-10-25,72,51,38,40,35,26,81,57,19,30.23,30.12,22,7,25,0.00
2013-10-26,68,49,35,39,34,30,81,59,25,30.25,30.08,21,8,23,0.00
2013-10-27,52,39,34,41,34,25,97,85,36,30.11,29.72,38,10,38,0.27
2013-10-28,39,33,30,38,28,21,98,82,62,29.99,29.77,32,12,36,0.03
2013-10-29,45,34,27,26,22,18,86,62,43,30.10,29.99,15,4,17,0.00
2013-10-30,55,41,30,35,30,26,87,67,36,30.19,30.09,19,8,23,0.00
2013-10-31,58,48,41,47,40,34,92,75,63,30.24,30.13,24,8,27,0.00
2013-11-1,56,44,35,44,40,34,97,85,63,30.26,29.95,24,8,26,0.00
2013-11-2,46,40,31,42,33,24,92,76,51,30.06,29.76,32,11,41,0.05
2013-11-3,41,35,31,30,28,24,91,76,50,30.15,30.01,20,8,23,0.00
2013-11-4,46,38,33,32,30,26,85,73,45,30.19,30.10,21,6,23,0.00
2013-11-5,49,43,38,42,38,32,90,83,74,30.24,30.12,30,13,30,0.00
2013-11-6,54,49,44,46,44,42,92,84,75,30.27,30.09,22,7,23,0.00
2013-11-7,52,44,37,45,37,26,89,78,55,30.10,29.84,36,10,38,0.11
2013-11-8,44,38,31,33,31,28,89,75,61,30.19,30.08,18,6,22,0.00
2013-11-9,55,40,29,37,32,27,92,74,46,30.15,30.08,16,5,19,0.00
2013-11-10,62,47,37,42,37,33,89,71,35,30.15,30.06,17,6,21,0.00
2013-11-11,40,36,34,37,35,31,98,94,86,30.28,30.14,10,2,10,0.00
2013-11-12,57,45,35,47,39,33,97,81,58,30.39,30.25,21,6,25,0.03
2013-11-13,57,42,32,41,33,27,97,74,34,30.44,30.25,16,5,16,0.00
2013-11-14,46,36,29,29,26,22,86,69,38,30.25,30.06,22,7,23,0.00
2013-11-15,41,34,28,29,26,23,88,74,56,30.08,29.60,31,10,34,0.00
2013-11-16,42,39,35,31,29,25,82,68,52,29.83,29.50,30,13,38,0.00
2013-11-17,45,39,35,32,30,28,79,69,54,30.04,29.83,27,12,31,0.00
2013-11-18,48,42,38,38,33,28,90,69,55,30.02,29.79,31,10,34,0.04
2013-11-19,46,42,39,42,39,36,93,89,83,29.83,29.76,34,12,34,0.20
2013-11-20,40,29,20,38,19,-3,94,67,36,30.42,29.83,21,9,23,0.01
2013-11-21,30,22,14,8,2,-3,71,42,30,30.77,30.42,18,5,19,0.00
2013-11-22,35,22,12,12,9,5,78,60,35,30.82,30.70,14,5,17,0.00
2013-11-23,37,24,12,24,14,8,86,66,42,30.70,30.42,9,3,10,0.00
2013-11-24,56,36,23,21,18,11,76,52,17,30.42,30.29,20,6,24,0.00
2013-11-25,54,37,27,23,20,14,71,53,20,30.41,30.34,19,5,19,0.00
2013-11-26,50,39,29,24,21,19,71,50,32,30.31,30.19,22,5,22,0.00
2013-11-27,45,36,27,26,24,22,81,62,47,30.13,30.06,10,3,12,0.00
2013-11-28,57,39,25,30,26,21,87,63,32,30.22,30.15,16,6,20,0.00
2013-11-29,55,45,29,29,26,24,80,51,33,30.31,30.24,21,7,26,0.00
2013-11-30,55,46,37,37,35,33,87,68,50,30.35,30.26,16,7,18,0.00
2013-12-1,49,48,44,45,41,37,89,79,64,30.14,29.81,37,16,40,0.00
2013-12-2,48,36,26,38,29,17,93,77,55,29.94,29.74,34,7,39,0.17
2013-12-3,27,20,14,22,14,6,91,79,64,30.29,29.94,21,7,25,0.00
2013-12-4,18,12,2,6,3,-2,82,65,52,30.42,30.29,17,6,17,0.00
2013-12-5,25,11,0,8,4,-3,87,73,44,30.42,30.28,19,5,20,0.00
2013-12-6,10,8,7,6,5,4,91,87,83,30.28,30.10,19,5,19,0.00
2013-12-7,12,2,-6,10,-2,-10,93,81,68,30.56,30.26,24,8,25,0.00
2013-12-8,21,5,-7,10,-1,-11,86,77,57,30.77,30.56,27,10,32,0.00
2013-12-9,32,19,5,22,11,0,83,71,55,30.77,30.54,30,13,33,0.00
2013-12-10,38,28,22,25,19,14,89,70,49,30.54,30.42,28,10,28,0.00
2013-12-11,42,33,20,28,24,17,89,71,56,30.45,30.33,17,7,20,0.00
2013-12-12,44,33,23,31,24,18,86,69,44,30.33,30.17,27,12,29,0.00
2013-12-13,48,38,30,35,32,27,92,78,60,30.44,30.25,19,8,22,0.00
2013-12-14,46,40,30,32,29,27,89,69,53,30.49,30.42,31,12,36,0.00
2013-12-15,58,45,36,40,31,23,82,59,35,30.45,30.34,30,10,32,0.00
2013-12-16,56,40,30,33,27,24,84,61,32,30.44,30.32,25,10,26,0.00
2013-12-17,57,44,32,28,24,20,68,48,26,30.32,30.09,30,12,32,0.00
2013-12-18,41,36,30,32,28,24,95,72,55,30.09,29.90,18,6,22,0.00
2013-12-19,30,24,18,26,15,9,90,68,46,30.28,30.00,19,6,21,0.00
2013-12-20,45,33,20,38,25,9,83,72,49,30.22,29.89,26,12,34,0.01
2013-12-21,52,43,38,36,33,28,82,68,43,30.15,29.91,25,6,34,0.00
2013-12-22,51,45,39,39,34,31,82,67,52,30.32,30.21,26,9,29,0.00
2013-12-23,53,46,40,40,33,27,74,60,49,30.37,30.23,34,12,47,0.00
2013-12-24,50,39,28,32,27,20,91,64,34,30.54,30.47,16,5,18,0.00
2013-12-25,48,40,30,28,25,23,77,58,38,30.49,30.42,32,11,32,0.00
2013-12-26,59,46,33,30,26,23,67,46,27,30.39,30.26,30,8,31,0.00
2013-12-27,51,42,34,26,24,22,65,49,34,30.30,30.16,26,9,28,0.00
2013-12-28,45,34,26,25,19,15,79,57,30,30.50,30.34,13,6,14,0.00
2013-12-29,47,36,25,20,17,14,67,47,27,30.46,30.35,24,10,27,0.00
2013-12-30,44,41,35,26,21,15,55,44,31,30.27,30.19,27,10,27,0.00
2013-12-31,53,44,37,25,22,18,58,42,28,30.31,30.21,22,7,24,0.00
2014-1-1,54,38,30,35,28,23,80,68,44,30.38,30.29,17,7,19,0.00
2014-1-2,59,44,32,34,29,27,81,59,36,30.32,30.03,26,11,30,0.00